Regional Weather Roundup
Issued by NWS

Home | Current Version | Previous Version | Text Only | Print | Product List | Glossary On
Versions: 1 2 3 4 5 6 7 8 9 10 11 12 13 14 15 16 17 18 19 20 21 22 23 24 25 26 27 28 29 30 31 32 33 34 35 36 37 38 39 40 41 42 43 44 45 46 47 48 49 50
000
ASUS43 KLMK 210210
RWRKY
KENTUCKY REGIONAL WEATHER ROUNDUP
NATIONAL WEATHER SERVICE LOUISVILLE KY
900 PM EST MON FEB 20 2017

NOTE "FAIR" INDICATES FEW OR NO CLOUDS BELOW 12,000 FEET
WITH NO SIGNIFICANT WEATHER AND/OR OBSTRUCTIONS TO VISIBILITY.

KYZ001>023-026-027-061>063-070>075-210300-
WESTERN AND SOUTH CENTRAL KENTUCKY

CITY           SKY/WX    TMP DP  RH WIND       PRES   REMARKS
PADUCAH        MOCLDY    64  50  60 SE8       29.98F
HENDERSON      CLOUDY    57  46  67 E5        30.02S
OWENSBORO      CLOUDY    59  48  67 SE5       30.04F
HOPKINSVILLE   PTCLDY    63  49  60 SE3       30.03F
BOWLING GREEN  CLOUDY    57  46  66 CALM      30.07R
GLASGOW        CLOUDY    56  47  71 CALM      30.08S
$$

KYZ024-025-028>034-038-045-046-053-210300-
NORTH CENTRAL KENTUCKY

CITY           SKY/WX    TMP DP  RH WIND       PRES   REMARKS
LOUISVILLE/SDF CLOUDY    61  42  49 SE5       30.06R
LOUISVILLE/LOU CLOUDY    64  44  48 CALM      30.07R
FORT KNOX      CLOUDY    56  44  64 CALM      30.05S
$$

KYZ035>037-039>044-047>052-055>060-089>105-210300-
NORTHEAST KENTUCKY

CITY           SKY/WX    TMP DP  RH WIND       PRES   REMARKS
LEXINGTON      PTCLDY    60  43  53 E5        30.10S
COVINGTON      CLOUDY    57  44  62 SE7       30.10R
FRANKFORT      PTCLDY    60  45  57 E6        30.08S
$$

KYZ054-064>069-076>088-106>120-210300-
SOUTHEAST KENTUCKY

CITY           SKY/WX    TMP DP  RH WIND       PRES   REMARKS
JACKSON        CLOUDY    62  37  39 E5        30.13R
LONDON         CLOUDY    53  39  59 CALM      30.12R
SOMERSET       PTCLDY    55  41  58 CALM      30.12S
MIDDLESBORO    MOCLDY    49  44  81 CALM      30.15R
MONTICELLO     CLOUDY    50  44  80 CALM      30.12S
$$




USA.gov is the U.S. government's official web portal to all federal, state and local government web resources and services.